Regional Weather Roundup
Issued by NWS Binghamton, NY

Home | Current Version | Previous Version | Text Only | Print | Product List | Glossary On
Versions: 1 2 3 4 5 6 7 8 9 10 11 12 13 14 15 16 17 18 19 20 21 22 23 24 25 26 27 28 29 30 31 32 33 34 35 36 37 38 39 40 41 42 43 44 45 46 47 48 49 50
000
ASUS41 KBGM 300710
RWRBGM
RWRBGM
BINGHAMTON REGIONAL WEATHER ROUNDUP
NATIONAL WEATHER SERVICE BINGHAMTON NY
300 AM EDT WED JUL 30 2014

Note: "fair" indicates few or no clouds below 12,000 feet with no
significant weather and/or obstructions to visibility.

* = Station(s) that does not report precipitation, such as rain,
snow, etc, also no thunder or fog.

!NYZ009-015>018-022>025-036-037-044>046-055>057-062-300800
...CENTRAL NEW YORK...

CITY           SKY/WX    TMP DP  RH WIND       PRES   REMARKS
BINGHAMTON     CLEAR     54  50  86 SW6       30.01S
CORTLAND       CLOUDY    50  50 100 CALM      30.02F
DANSVILLE      MOCLDY    53  51  93 SE12      30.00F
ELMIRA         FOG       49  49 100 CALM      30.01S VSB 1/2
ITHACA         CLEAR     51  51 100 E5        30.02S
HAMILTON       CLOUDY    52  48  87 CALM      30.01S
MONTICELLO     MOCLDY    54  52  94 CALM      30.02S
NORWICH        CLOUDY    54  54 100 CALM      30.02R
ONEONTA        CLEAR     52  50  93 CALM      30.01S
PENN YAN       CLEAR     56  54  93 S7        30.00S
ROME           CLEAR     50  48  93 CALM      30.00S
SIDNEY         CLOUDY    57  57 100 CALM      30.01S
SYRACUSE       PTCLDY    55  51  86 SE3       29.98S
$$

!PAZ038>040-043-044-047-048-072-300800
...NORTHEAST PENNSYLVANIA...

CITY           SKY/WX    TMP DP  RH WIND       PRES   REMARKS
HAZLETON       FOG       46  46 100 CALM      30.05S VSB 3/4
SCRANTON       PTCLDY    54  49  83 E6        30.01S
TOWANDA*       CLEAR     52  52 100 CALM      30.02S
$$
&&
KEY
WCI = WIND CHILL INDEX
VSB = VISIBILITY
HX  = HEAT INDEX
$$


USA.gov is the U.S. government's official web portal to all federal, state and local government web resources and services.